Weather History for KELN - January, 2012

Change the Weather History Date:

Wednesday, January 4, 2012

  Actual Average (KYKM) Record (KYKM)
Temperature  
Mean Temperature 35 °F 29 °F  
Max Temperature 42 °F 36 °F 57 °F (1990)
Min Temperature 28 °F 22 °F -14 °F (2004)
Degree Days  
Heating Degree Days 30 36  
Month to date heating degree days 147  
Since 1 July heating degree days 2810  
Cooling Degree Days 0 0  
Month to date cooling degree days 0  
Year to date cooling degree days 0  
Moisture  
Dew Point 29 °F    
Average Humidity 85    
Maximum Humidity 92    
Minimum Humidity 80    
Precipitation  
Precipitation 0.01 in 0.04 in 0.39 in (2010)
Month to date precipitation 0.17  
Year to date precipitation 0.17  
Snow  
Snow 0.00 in 0.30 in 1.30 in (1998)
Month to date snowfall 1.0  
Year to date snowfall 1.0  
Since 1 July snowfall 14.0  
Snow Depth -    
Sea Level Pressure  
Sea Level Pressure 30.18 in    
Wind  
Wind Speed 2 mph (NNW)    
Max Wind Speed 10 mph    
Max Gust Speed -    
Visibility 5 miles    
Events Fog , Rain    
T = Trace of Precipitation, MM = Missing Value Source: NWS Daily Summary

Daily Weather History Graph

Daily Weather History Graph

Search for Another Location

Airport or City:

Trip Planner

Search our weather history database for the weather conditions in past years. The results will help you decide how hot, cold, wet, or windy it might be!

Date:

Astronomy

Jan. 04, 2012 Rise Set
Actual Time 7:47 AM PST 4:26 PM PST
Civil Twilight 7:12 AM PST 5:01 PM PST
Nautical Twilight 6:34 AM PST 5:39 PM PST
Astronomical Twilight 5:57 AM PST 6:16 PM PST
Moon 12:54 PM PST (1/4) 3:38 AM PST (1/4)
Length of Visible Light 9h 48m
Length of Day
8h 38m
Waxing Gibbous, 81% of the Moon is Illuminated
Jan 4
Waxing Gibbous
Jan 8
Full
Jan 16
Last Quarter
Jan 22
New
Jan 30
First Quarter

Hourly Weather History & Observations

Time (PST) Temp. Windchill Dew Point Humidity Pressure Visibility Wind Dir Wind Speed Gust Speed Precip Events Conditions
12:53 AM 30.9 °F - 27.0 °F 85% 30.31 in 10.0 mi Calm Calm - N/A   Clear
1:53 AM 30.0 °F - 26.1 °F 85% 30.31 in 10.0 mi Calm Calm - N/A   Clear
2:53 AM 30.0 °F - 26.1 °F 85% 30.30 in 10.0 mi Calm Calm - N/A   Mostly Cloudy
3:53 AM 28.9 °F - 25.0 °F 85% 30.30 in 8.0 mi Calm Calm - N/A   Clear
4:53 AM 30.0 °F 24.1 °F 26.1 °F 85% 30.27 in 7.0 mi East 5.8 mph - N/A   Clear
5:53 AM 28.9 °F - 25.0 °F 85% 30.28 in 6.0 mi Calm Calm - N/A   Clear
6:06 AM 28.4 °F 23.3 °F 24.8 °F 86% 30.23 in 7.0 mi North 4.6 mph - N/A   Scattered Clouds
6:34 AM 28.4 °F 22.2 °F 23.0 °F 80% 30.23 in 7.0 mi WNW 5.8 mph - N/A   Mostly Cloudy
6:51 AM 30.2 °F 26.7 °F 26.6 °F 86% 30.23 in 1.8 mi NW 3.5 mph - N/A   Overcast
6:53 AM 30.0 °F 25.2 °F 26.1 °F 85% 30.27 in 1.0 mi NW 4.6 mph - N/A   Overcast
6:57 AM 30.2 °F 25.4 °F 26.6 °F 86% 30.22 in 0.8 mi NW 4.6 mph - N/A   Overcast
7:53 AM 30.9 °F - 28.0 °F 89% 30.26 in 0.2 mi Calm Calm - N/A Fog Light Freezing Fog
8:53 AM 30.0 °F - 27.0 °F 88% 30.26 in 0.2 mi Calm Calm - N/A Fog Light Freezing Fog
9:53 AM 30.0 °F 25.2 °F 27.0 °F 88% 30.26 in 0.2 mi WNW 4.6 mph - N/A Fog Light Freezing Fog
10:53 AM 32.0 °F - 30.0 °F 92% 30.24 in 0.2 mi Calm Calm - N/A Fog Fog
11:53 AM 33.1 °F - 30.0 °F 89% 30.20 in 0.2 mi Calm Calm - N/A Fog Fog
12:53 PM 35.1 °F - 32.0 °F 89% 30.17 in 0.2 mi Calm Calm - N/A Fog Fog
2:26 PM 35.6 °F - 30.2 °F 81% 30.10 in 1.0 mi Calm Calm - N/A   Overcast
2:36 PM 35.6 °F 32.8 °F 30.2 °F 81% 30.11 in 1.5 mi South 3.5 mph - N/A   Overcast
2:53 PM 34.0 °F - 30.9 °F 89% 30.15 in 2.0 mi Calm Calm - N/A   Overcast
3:08 PM 35.6 °F 32.8 °F 30.2 °F 81% 30.09 in 4.0 mi East 3.5 mph - N/A   Haze
3:45 PM 35.6 °F 32.8 °F 30.2 °F 81% 30.09 in 6.0 mi East 3.5 mph - N/A   Haze
3:53 PM 35.1 °F - 30.0 °F 82% 30.14 in 7.0 mi Calm Calm - N/A   Overcast
4:53 PM 35.1 °F 32.2 °F 30.0 °F 82% 30.12 in 8.0 mi West 3.5 mph - N/A   Overcast
5:53 PM 33.1 °F 28.7 °F 28.9 °F 85% 30.10 in 6.0 mi ENE 4.6 mph - N/A   Mostly Cloudy
6:53 PM 32.0 °F 27.5 °F 27.0 °F 82% 30.12 in 7.0 mi North 4.6 mph - N/A   Mostly Cloudy
7:53 PM 30.0 °F - 26.1 °F 85% 30.11 in 7.0 mi Calm Calm - N/A   Scattered Clouds
8:53 PM 33.1 °F 30.0 °F 28.9 °F 85% 30.11 in 6.0 mi ENE 3.5 mph - 0.00 in   Overcast
9:53 PM 33.1 °F 26.9 °F 30.0 °F 89% 30.11 in 5.0 mi NNW 6.9 mph - N/A   Overcast
10:28 PM 42.8 °F 37.0 °F 37.4 °F 81% 30.07 in 10.0 mi WNW 10.4 mph - 0.01 in Rain Light Rain
10:50 PM 37.4 °F 34.9 °F 33.8 °F 87% 30.07 in 8.0 mi WSW 3.5 mph - 0.01 in Rain Light Rain
10:53 PM 37.0 °F 33.3 °F 33.1 °F 86% 30.12 in 8.0 mi SW 4.6 mph - 0.01 in Rain Light Rain
11:53 PM 36.0 °F 30.3 °F 30.9 °F 82% 30.13 in 9.0 mi SE 6.9 mph - 0.00 in   Clear